[[{"header":{"parameterUnit":"m.s-1","parameterCategory":1,"la1":30.2991,"la2":30.254,"lo1":-89.0895,"lo2":-89.0444,"dy":0.0017,"dx":0.0017,"nx":28,"ny":28,"refTime":"2023-11-06T09:00:00:Z","depth":0,"parameterNumber":2,"parameterNumberName":"U-component_of_WINDS"},"data":[0,0,0,0,0,0,0,0,0,0,0,0,0,0,0,0,0,0,0,0,0,0,0,0,0,0,0,0,0,0,0,0,0,0,0,0,0,0,0,0,0,0,0,0,0,0,0,0,0,0,0,0,0,0,0,0,0,0,0.4331,0.4332,0,0.4404,0.4405,0.4406,0.4395,0.4394,0.4393,0.4392,0.4472,0.4475,0.4479,0,0,0,0,0,0,0,0,0,0,0,0,0,0.4186,0.4189,0.4331,0.4332,0.4333,0.4404,0.4405,0.4406,0.4395,0.4394,0.4392,0.4391,0.4471,0.4475,0.4479,0,0,0,0,0,0,0,0,0,0,0,0,0,0.4253,0.419,0.4331,0.4336,0.4337,0.4404,0.4405,0.4407,0.4396,0.4394,0.4392,0.439,0.447,0.4475,0.4479,0.4548,0,0,0.4495,0.4497,0,0,0,0,0,0,0,0,0.425,0.4259,0.4334,0.4336,0.4337,0.4389,0.4384,0.4454,0.4396,0.4374,0.4392,0.4389,0.4446,0.4453,0.4471,0.4551,0.4555,0.4495,0.4498,0.45,0.4502,0,0,0,0,0,0,0,0.4245,0.4256,0.436,0.4335,0.4337,0.4336,0.4344,0.4397,0.442,0.4375,0.4375,0.4383,0.4447,0.4466,0.4473,0.4556,0.4495,0.4499,0.4502,0.4504,0.4697,0.4699,0,0,0,0,0,0,0.4238,0.4252,0.4358,0.4362,0.4288,0.434,0.4349,0.4374,0.4419,0.4424,0.4385,0.4383,0.4459,0.4467,0.4476,0.4559,0.45,0.4505,0.4508,0.4695,0.4697,0.47,0,0,0,0,0,0,0.4235,0.4248,0.4355,0.4307,0.432,0.4345,0.4373,0.4376,0.4396,0.4426,0.4431,0.44,0.4458,0.4469,0.453,0.4561,0.4507,0.4512,0.4692,0.4695,0.4698,0.4725,0,0,0,0,0,0,0.4231,0.4247,0.4272,0.4307,0.4323,0.4406,0.4375,0.4379,0.4404,0.4402,0.4442,0.4447,0.4457,0.4522,0.4534,0.4567,0.4515,0.4689,0.4694,0.4697,0.4722,0.4729,0.4735,0,0,0,0,0,0.4226,0.4277,0.4273,0.4286,0.4354,0.4408,0.4417,0.4426,0.4407,0.4433,0.4452,0.4446,0.4556,0.4529,0.4542,0.4577,0.4687,0.4692,0.4697,0.4719,0.4728,0.4735,0,0,0,0,0,0,0.4246,0.4282,0.4278,0.4342,0.4372,0.4406,0.4439,0.4435,0.4472,0.4469,0.448,0.4489,0.4551,0.457,0.4539,0.4646,0.4619,0.4627,0.4631,0.464,0.4646,0.4641,0.452,0,0,0,0,0,0.4258,0.4297,0.4327,0.4381,0.4396,0.4415,0.4438,0.4443,0.4475,0.4488,0.4512,0.4545,0.4586,0.4614,0.4654,0.4724,0.4733,0.4755,0.4762,0.4767,0.4774,0.4813,0.4823,0.4715,0.4715,0.4715,0,0,0.4283,0.4308,0.4332,0.4385,0.4409,0.445,0.4426,0.4471,0.4502,0.4495,0.4554,0.4572,0.461,0.4676,0.4706,0.4693,0.4806,0.4773,0.4777,0.4781,0.4819,0.4829,0.4838,0.4719,0.4718,0.4717,0,0,0.435,0.4372,0.442,0.4443,0.4479,0.4491,0.4503,0.4537,0.4549,0.4608,0.4604,0.4642,0.4714,0.4741,0.4764,0.4841,0.4837,0.4854,0.489,0.4928,0.4936,0.4944,0.4972,0.4981,0.4861,0.4861,0.4861,0,0.4378,0.4438,0.4445,0.449,0.4514,0.4508,0.4557,0.4581,0.4629,0.4646,0.4631,0.4721,0.4746,0.4818,0.4837,0.4855,0.487,0.485,0.4934,0.4942,0.4949,0.4976,0.4986,0.4863,0.4862,0.4862,0.4862,0,0.447,0.4513,0.4547,0.4591,0.4619,0.4666,0.4681,0.4709,0.4711,0.4726,0.4786,0.4815,0.4862,0.4879,0.4882,0.4952,0.4943,0.4931,0.4905,0.4961,0.4986,0.4997,0.4865,0.4865,0.4864,0.4864,0,0,0.4553,0.4599,0.4612,0.4632,0.4671,0.4704,0.4752,0.4795,0.4819,0.4852,0.4893,0.4954,0.4943,0.4969,0.4975,0.5008,0.5068,0.4992,0.4993,0.5006,0.5147,0.5156,0.5168,0.5065,0.5067,0.5069,0.5144,0,0.4623,0.4705,0.4712,0.4786,0.4826,0.4821,0.4862,0.4892,0.4906,0.4944,0.4961,0.5004,0.4985,0.5001,0.5034,0.5054,0.5097,0.5048,0.5104,0.5106,0.5095,0.5181,0.5191,0.5261,0.5154,0.5156,0.5157,0,0.4717,0.4751,0.4828,0.4862,0.4879,0.4915,0.4956,0.4991,0.5025,0.5033,0.5062,0.5064,0.5114,0.5085,0.5155,0.5122,0.5146,0.5159,0.5162,0.5168,0.5135,0.519,0.5283,0.5294,0.5173,0.5172,0.5171,0,0.4769,0.4835,0.489,0.4907,0.4947,0.4973,0.4992,0.5023,0.5049,0.5085,0.5102,0.5144,0.5167,0.5201,0.5214,0.5192,0.5284,0.5256,0.5293,0.5293,0.5313,0.5312,0.5412,0.5328,0.5328,0.5327,0.5327,0,0.4848,0.4896,0.4914,0.4948,0.5001,0.501,0.5063,0.5081,0.5109,0.5147,0.5146,0.5182,0.5197,0.5236,0.5248,0.5304,0.5315,0.5324,0.5327,0.5324,0.5323,0.534,0.5336,0.533,0.533,0.5329,0.5329,0,0.4916,0.493,0.4989,0.5022,0.5031,0.5069,0.5098,0.5132,0.5146,0.5194,0.5206,0.5229,0.5275,0.5291,0.5348,0.5355,0.5421,0.5419,0.5409,0.541,0.5446,0.5442,0.5561,0.5577,0.5482,0.5483,0.5484,0,0.4965,0.5001,0.5037,0.5062,0.5081,0.5121,0.5147,0.5157,0.5185,0.5225,0.5254,0.5299,0.5336,0.541,0.5433,0.5476,0.5475,0.5514,0.5482,0.5479,0.5476,0.5474,0.5478,0.552,0.5521,0.5522,0.5522,0,0.5051,0.5056,0.5092,0.5132,0.5162,0.5194,0.5225,0.5246,0.5261,0.5292,0.5338,0.5366,0.5423,0.5469,0.5513,0.5533,0.5531,0.5532,0.5543,0.5541,0.5534,0.5539,0.5426,0.553,0.5529,0.5528,0.5528,0.5528,0.5111,0.5143,0.5173,0.5214,0.5238,0.5267,0.53,0.5318,0.5356,0.5402,0.5406,0.5456,0.549,0.5548,0.5571,0.5611,0.5601,0.5616,0.5621,0.5624,0.5627,0.5527,0.5619,0.5619,0.5619,0.5619,0.5619,0,0.5197,0.5216,0.5254,0.5296,0.5329,0.5322,0.5356,0.5384,0.5427,0.5458,0.5494,0.5547,0.5591,0.5617,0.5661,0.5688,0.5689,0.57,0.5698,0.5703,0.5634,0.562,0.5699,0.5699,0.5699,0.5699,0.5699,0.5699,0.5245,0.5299,0.5308,0.5375,0.5394,0.5441,0.5461,0.5489,0.5513,0.5572,0.5608,0.5624,0.5653,0.5699,0.574,0.5746,0.5763,0.5775,0.5781,0.5716,0.5708,0.57,0.5687,0.5779,0.5779,0.5847,0.5848,0.5848]},{"header":{"parameterUnit":"m.s-1","parameterCategory":1,"la1":30.2991,"la2":30.254,"lo1":-89.0895,"lo2":-89.0444,"dy":0.0017,"dx":0.0017,"nx":28,"ny":28,"refTime":"2023-11-06T09:00:00:Z","depth":0,"parameterNumber":3,"parameterNumberName":"V-component_of_WINDS"},"data":[0,0,0,0,0,0,0,0,0,0,0,0,0,0,0,0,0,0,0,0,0,0,0,0,0,0,0,0,0,0,0,0,0,0,0,0,0,0,0,0,0,0,0,0,0,0,0,0,0,0,0,0,0,0,0,0,0,0,2.2119,2.212,0,2.2197,2.2197,2.2198,2.2177,2.2175,2.2174,2.2172,2.2252,2.2255,2.2259,0,0,0,0,0,0,0,0,0,0,0,0,0,2.1954,2.1957,2.2119,2.212,2.2121,2.2196,2.2197,2.2198,2.2177,2.2175,2.2173,2.2171,2.2251,2.2255,2.2259,0,0,0,0,0,0,0,0,0,0,0,0,0,2.2028,2.1958,2.2119,2.2119,2.212,2.2196,2.2197,2.2199,2.2177,2.2175,2.2173,2.217,2.2249,2.2255,2.226,2.2341,0,0,2.2276,2.2279,0,0,0,0,0,0,0,0,2.2024,2.2034,2.2118,2.2119,2.212,2.2174,2.2169,2.2246,2.2178,2.2156,2.2172,2.2169,2.2228,2.2235,2.2255,2.2344,2.2348,2.2277,2.228,2.2283,2.2284,0,0,0,0,0,0,0,2.2019,2.2031,2.215,2.2119,2.2121,2.2116,2.2124,2.2183,2.2204,2.2157,2.2156,2.2165,2.2228,2.225,2.2257,2.2349,2.2277,2.2282,2.2285,2.2287,2.2511,2.2514,0,0,0,0,0,0,2.2013,2.2026,2.2147,2.2152,2.2065,2.2121,2.213,2.2159,2.2203,2.2208,2.2167,2.2164,2.2242,2.225,2.2259,2.2359,2.2282,2.2288,2.2291,2.2508,2.2512,2.2515,0,0,0,0,0,0,2.2009,2.2024,2.2144,2.2089,2.2104,2.2126,2.216,2.2162,2.2184,2.2211,2.2215,2.2185,2.224,2.2252,2.2321,2.2361,2.229,2.2295,2.2505,2.2509,2.2513,2.2557,0,0,0,0,0,0,2.2004,2.2022,2.2053,2.209,2.2107,2.2204,2.2162,2.2165,2.2193,2.219,2.2229,2.2233,2.2239,2.2313,2.2327,2.2367,2.2299,2.2502,2.2507,2.2512,2.2552,2.2562,2.257,0,0,0,0,0,2.1999,2.2061,2.2054,2.2069,2.2145,2.2206,2.2216,2.2222,2.2196,2.2228,2.2245,2.2232,2.2354,2.232,2.2335,2.2378,2.2499,2.2506,2.2511,2.2548,2.256,2.257,0,0,0,0,0,0,2.2028,2.2066,2.2059,2.2135,2.2168,2.2203,2.2242,2.2234,2.2274,2.227,2.2275,2.2284,2.2356,2.2373,2.2335,2.246,2.2423,2.2432,2.2446,2.2457,2.2466,2.2461,2.2304,0,0,0,0,0,2.2044,2.209,2.212,2.2185,2.2202,2.2219,2.2246,2.2248,2.2282,2.2295,2.2318,2.2352,2.2398,2.2428,2.2472,2.2554,2.2563,2.2591,2.26,2.2607,2.2616,2.2663,2.2676,2.2535,2.2535,2.2534,0,0,2.2076,2.2102,2.2131,2.2192,2.2217,2.2266,2.2231,2.2283,2.232,2.2303,2.2371,2.2389,2.2427,2.2503,2.2538,2.2521,2.2657,2.2615,2.2621,2.2625,2.267,2.2684,2.2696,2.2539,2.2538,2.2537,0,0,2.216,2.2184,2.2241,2.2268,2.2307,2.2318,2.2332,2.2369,2.2381,2.2448,2.2438,2.2481,2.256,2.2589,2.2613,2.271,2.27,2.2724,2.2773,2.2818,2.283,2.2839,2.2876,2.2889,2.2732,2.2732,2.2733,0,2.2195,2.2267,2.2272,2.2326,2.2354,2.2341,2.2401,2.2426,2.2478,2.2498,2.2477,2.2578,2.2602,2.2686,2.271,2.273,2.2747,2.272,2.2827,2.2838,2.2847,2.2882,2.2895,2.2735,2.2735,2.2735,2.2734,0,2.231,2.2361,2.2402,2.2453,2.2486,2.2542,2.2556,2.2588,2.2588,2.2602,2.2672,2.2701,2.2752,2.2772,2.2771,2.2857,2.2845,2.2826,2.2789,2.2863,2.2896,2.2909,2.2739,2.2738,2.2737,2.2737,0,0,2.2414,2.2468,2.2484,2.2508,2.2551,2.259,2.2647,2.2697,2.2725,2.2761,2.281,2.2878,2.2862,2.289,2.2892,2.2932,2.301,2.2909,2.291,2.2928,2.3108,2.3124,2.3139,2.3003,2.3005,2.3007,2.3106,0,2.2504,2.2603,2.261,2.27,2.2748,2.2738,2.2787,2.282,2.2835,2.2878,2.2894,2.2943,2.2917,2.2934,2.2973,2.2992,2.3046,2.2985,2.305,2.3052,2.3042,2.3156,2.3171,2.3263,2.3119,2.3121,2.3122,0,2.2621,2.2662,2.2757,2.2796,2.2816,2.286,2.2908,2.2949,2.2986,2.2994,2.3027,2.3024,2.3083,2.3044,2.3127,2.3085,2.3112,2.3125,2.3129,2.3137,2.3092,2.3168,2.3292,2.3306,2.3142,2.3141,2.3139,0,2.269,2.2769,2.2837,2.2857,2.2903,2.2935,2.2956,2.299,2.3021,2.3062,2.3082,2.313,2.3156,2.3194,2.3205,2.3175,2.3288,2.3249,2.3298,2.3298,2.3323,2.3321,2.3455,2.3337,2.3337,2.3337,2.3337,0,2.279,2.2849,2.2869,2.2911,2.2977,2.2985,2.3051,2.3069,2.3101,2.3147,2.314,2.3184,2.3195,2.3241,2.325,2.3318,2.333,2.3339,2.3341,2.3341,2.334,2.3359,2.3354,2.3341,2.334,2.3339,2.3338,0,2.2879,2.2894,2.2968,2.3006,2.3017,2.3064,2.3097,2.3138,2.3153,2.3211,2.3226,2.3249,2.3303,2.3317,2.3381,2.3387,2.3468,2.3463,2.3456,2.3456,2.3505,2.3501,2.3657,2.3679,2.3545,2.3547,2.3548,0,2.2942,2.2988,2.3031,2.3062,2.3084,2.3133,2.3165,2.3174,2.3207,2.3254,2.329,2.3343,2.3386,2.3473,2.3496,2.3546,2.3543,2.3594,2.355,2.3549,2.3546,2.3544,2.355,2.3603,2.3604,2.3605,2.3606,0,2.3054,2.306,2.3105,2.3154,2.3192,2.323,2.3268,2.3293,2.3308,2.3346,2.3401,2.3435,2.3501,2.3555,2.3605,2.3627,2.362,2.362,2.3634,2.3635,2.363,2.3636,2.3481,2.3616,2.3615,2.3615,2.3614,2.3614,2.3134,2.3175,2.3212,2.3263,2.3293,2.3328,2.3369,2.3389,2.3436,2.3491,2.3493,2.3554,2.3592,2.3659,2.3684,2.3733,2.3717,2.3737,2.3743,2.3748,2.3753,2.3621,2.3741,2.3741,2.3741,2.3741,2.374,0,2.3247,2.3271,2.3318,2.3371,2.3412,2.3401,2.3442,2.3478,2.3531,2.3567,2.361,2.3675,2.3728,2.3755,2.3807,2.3841,2.3839,2.3855,2.3853,2.3859,2.3763,2.3746,2.3855,2.3855,2.3855,2.3855,2.3855,2.3855,2.3311,2.338,2.3391,2.3475,2.3499,2.3559,2.3584,2.3617,2.3646,2.3719,2.3763,2.378,2.3813,2.3868,2.3916,2.3923,2.3943,2.3961,2.3966,2.3877,2.3865,2.3854,2.3838,2.3965,2.3965,2.4058,2.4059,2.406]}]]